Hourly Data Report for March 28, 2020

OTTAWA INTL A
ONTARIO
Current Station Operator: NAVCAN

45°19'00.000" N
75°40'00.000" W
114.90 m
6106001
71628
YOW

Download Data

Hourly Data (March 2020)
Hourly Data Report for March 28, 2020
TIME
LST
Temp Definition
°C
Dew Point Definition
°C
Rel Hum Definition
%
Precip. Amount Definition
mm

Wind Dir Definition
10's deg

Wind Spd Definition
km/h
Visibility Definition
km
Stn Press Definition
kPa
Hmdx Definition


Wind Chill Definition


Weather Definition


00:00 -0.8 -6.3 66   36 2 24.1 100.57   -1 LegendNANA
01:00 -1.5 -6.1 71   36 3 24.1 100.56   -3 Clear
02:00 -2.9 -6.7 75   4 13 24.1 100.51   -8 LegendNANA
03:00 -2.0 -6.6 71   6 7 24.1 100.51   -5 LegendNANA
04:00 -4.5 -8.2 76   13 4 24.1 100.52   -6 Clear
05:00 -4.2 -7.0 81   5 12 24.1 100.49   -9 LegendNANA
06:00 -4.6 -6.9 84   6 7 24.1 100.53   -8 LegendNANA
07:00 -1.9 -4.8 80   5 10 24.1 100.59   -6 Mostly Cloudy
08:00 -0.5 -5.0 72   4 16 24.1 100.60   -5 LegendNANA
09:00 0.8 -6.0 61   6 13 24.1 100.65     LegendNANA
10:00 2.8 -6.0 52   7 16 24.1 100.65     Mostly Cloudy
11:00 4.2 -5.6 49   9 14 24.1 100.60     LegendNANA
12:00 5.6 -5.1 46   7 19 24.1 100.53     LegendNANA
13:00 5.4 -4.2 50   5 17 24.1 100.50     Cloudy
14:00 5.5 -5.1 46   6 22 24.1 100.41     LegendNANA
15:00 7.0 -4.8 43   7 16 24.1 100.38     LegendNANA
16:00 6.1 -4.2 48   5 16 24.1 100.37     Mostly Cloudy
17:00 5.0 -4.1 52   5 14 24.1 100.44     LegendNANA
18:00 4.5 -4.2 53   5 15 24.1 100.47     LegendNANA
19:00 4.4 -4.7 52   5 19 24.1 100.50     Cloudy
20:00 4.2 -4.7 52   6 17 24.1 100.57     LegendNANA
21:00 4.0 -4.4 54   6 16 24.1 100.52     LegendNANA
22:00 3.9 -4.5 54   5 17 24.1 100.52     Cloudy
23:00 3.5 -4.8 55   6 23 24.1 100.41     LegendNANA

Notes on Data Quality.

Legend

  • E = Estimated
  • M = Missing
  • NA = Not Available*
  • [empty] = Indicates an unobserved value
Date modified: